GW5483 Weather Reports


time (UTC)temp
C
wind
direction
speed
KPH
gust
KPH
rain 1hr
cm
rain 24hr
cm
rain mn
cm
humidity
%
barometer
mb
20260506155408 15 121 1.6 6.4 0.00 0.00 0.00 80 1018.0
20260506154908 15 85 4.8 6.4 0.00 0.00 0.00 80 1018.0
20260506154407 15 107 3.2 4.8 0.00 0.00 0.00 80 1018.0
20260506153908 15 91 4.8 6.4 0.00 0.00 0.00 79 1018.0
20260506153407 15 101 4.8 6.4 0.00 0.00 0.00 79 1018.0
20260506152908 15 99 4.8 4.8 0.00 0.00 0.00 80 1018.0
20260506152408 15 73 3.2 8.0 0.00 0.00 0.00 78 1018.0
20260506151907 15 101 3.2 6.4 0.00 0.00 0.00 80 1018.0
20260506151408 15 78 4.8 8.0 0.00 0.00 0.00 79 1018.0
20260506150909 15 84 3.2 6.4 0.00 0.00 0.00 79 1017.0
20260506150411 15 93 3.2 4.8 0.00 0.00 0.00 80 1017.0
20260506145907 14 85 1.6 3.2 0.00 0.00 0.00 82 1018.0
20260506145407 14 320 0.0 3.2 0.00 0.00 0.00 81 1017.0
20260506144907 13 30 0.0 4.8 0.00 0.00 0.00 82 1017.0
20260506144410 13 71 1.6 3.2 0.00 0.00 0.00 82 1018.0
20260506143907 13 141 1.6 3.2 0.00 0.00 0.00 83 1017.0
20260506143408 13 85 1.6 3.2 0.00 0.00 0.00 84 1017.0
20260506142909 13 71 0.0 3.2 0.00 0.00 0.00 83 1017.0
20260506142407 13 60 1.6 3.2 0.00 0.00 0.00 83 1017.0
20260506141908 13 101 1.6 3.2 0.00 0.00 0.00 84 1017.0
20260506141408 13 120 0.0 3.2 0.00 0.00 0.00 84 1017.0
20260506140909 13 66 0.0 4.8 0.00 0.00 0.00 84 1017.0
20260506140408 13 117 0.0 1.6 0.00 0.00 0.00 85 1017.0
20260506135908 13 130 0.0 3.2 0.00 0.00 0.00 85 1017.0
20260506135407 13 137 0.0 1.6 0.00 0.00 0.00 85 1017.0
20260506134908 13 55 0.0 1.6 0.00 0.00 0.00 84 1017.0
20260506134407 13 100 0.0 1.6 0.00 0.00 0.00 84 1017.0
20260506133907 13 99 0.0 3.2 0.00 0.00 0.00 84 1017.0
20260506133408 13 177 1.6 3.2 0.00 0.00 0.00 84 1017.0
20260506132908 13 119 1.6 3.2 0.00 0.00 0.00 84 1017.0
20260506132409 13 204 0.0 3.2 0.00 0.00 0.00 84 1017.0
20260506131908 13 151 0.0 3.2 0.00 0.00 0.00 83 1017.0
20260506131407 13 158 0.0 3.2 0.00 0.00 0.00 83 1017.0
20260506130907 13 76 0.0 0.0 0.00 0.00 0.00 83 1017.0
20260506130407 13 224 0.0 1.6 0.00 0.00 0.00 83 1017.0
20260506125907 13 211 1.6 4.8 0.00 0.00 0.00 82 1017.0
20260506125408 13 198 3.2 3.2 0.00 0.00 0.00 82 1016.0
20260506124907 13 111 0.0 3.2 0.00 0.00 0.00 82 1017.0
20260506124407 13 135 0.0 3.2 0.00 0.00 0.00 82 1017.0
20260506123908 13 191 0.0 1.6 0.00 0.00 0.00 81 1016.0
20260506123411 13 234 0.0 3.2 0.00 0.00 0.00 81 1016.0
20260506122907 13 145 3.2 3.2 0.00 0.00 0.00 81 1016.0
20260506122407 13 89 0.0 3.2 0.00 0.00 0.00 81 1016.0
20260506121907 13 143 1.6 3.2 0.00 0.00 0.00 81 1017.0
20260506121407 13 128 1.6 3.2 0.00 0.00 0.00 81 1016.0
20260506120907 13 102 0.0 3.2 0.00 0.00 0.00 81 1016.0
20260506120409 13 99 3.2 3.2 0.00 0.00 0.00 81 1016.0
20260506115907 13 144 0.0 4.8 0.00 0.00 0.00 81 1016.0
20260506115407 13 115 1.6 3.2 0.00 0.00 0.00 81 1017.0
20260506114909 13 109 0.0 3.2 0.00 0.00 0.00 81 1016.0
20260506114407 13 192 3.2 3.2 0.00 0.00 0.00 81 1016.0
20260506113908 13 119 0.0 3.2 0.00 0.00 0.00 81 1016.0
20260506113407 13 123 0.0 3.2 0.00 0.00 0.00 81 1016.0
20260506112908 13 121 1.6 3.2 0.00 0.00 0.00 81 1016.0
20260506112408 13 149 3.2 3.2 0.00 0.00 0.00 81 1016.0
20260506111907 13 138 1.6 3.2 0.00 0.00 0.00 81 1016.0
20260506111407 13 112 0.0 3.2 0.00 0.00 0.00 80 1016.0
20260506110907 13 73 0.0 3.2 0.00 0.00 0.00 80 1016.0
20260506110407 13 119 0.0 3.2 0.00 0.00 0.00 80 1016.0
20260506105907 13 123 0.0 4.8 0.00 0.00 0.00 80 1016.0
20260506105407 13 217 0.0 3.2 0.00 0.00 0.00 80 1016.0
20260506104907 13 112 0.0 3.2 0.00 0.00 0.00 80 1016.0
20260506104407 13 76 1.6 3.2 0.00 0.00 0.00 80 1016.0
20260506103908 13 124 1.6 3.2 0.00 0.00 0.00 80 1016.0
20260506103408 13 6 0.0 4.8 0.00 0.00 0.00 80 1016.0
20260506102909 13 123 3.2 3.2 0.00 0.00 0.00 80 1016.0
20260506102407 13 114 0.0 1.6 0.00 0.00 0.00 80 1016.0
20260506101907 13 119 1.6 3.2 0.00 0.00 0.00 79 1016.0
20260506101408 13 35 0.0 3.2 0.00 0.00 0.00 80 1016.0
20260506100907 13 151 1.6 3.2 0.00 0.00 0.00 79 1016.0
20260506100409 13 138 0.0 3.2 0.00 0.00 0.00 79 1016.0
20260506095907 13 111 0.0 3.2 0.00 0.00 0.00 79 1016.0
20260506095407 13 132 1.6 3.2 0.00 0.00 0.00 79 1016.0
20260506094907 13 128 3.2 4.8 0.00 0.00 0.00 79 1016.0
20260506094408 13 224 0.0 3.2 0.00 0.00 0.00 79 1016.0
20260506093907 13 176 3.2 3.2 0.00 0.00 0.00 79 1016.0
20260506093408 13 135 1.6 3.2 0.00 0.00 0.00 79 1016.0
20260506092907 13 175 1.6 3.2 0.00 0.00 0.00 79 1016.0
20260506092408 13 139 0.0 3.2 0.00 0.00 0.00 79 1016.0
20260506091907 13 96 0.0 3.2 0.00 0.00 0.00 80 1016.0
20260506091407 13 256 0.0 3.2 0.00 0.00 0.00 79 1016.0
20260506090423 13 102 0.0 3.2 0.00 0.00 0.00 80 1016.0
20260506085907 13 87 0.0 3.2 0.00 0.00 0.00 80 1016.0
20260506085407 13 112 0.0 3.2 0.00 0.00 0.00 80 1016.0
20260506084908 13 66 1.6 3.2 0.00 0.00 0.00 80 1016.0
20260506084407 13 113 0.0 3.2 0.00 0.00 0.00 79 1016.0
20260506083907 13 129 1.6 4.8 0.00 0.00 0.00 79 1016.0
20260506083408 13 79 3.2 3.2 0.00 0.00 0.00 80 1016.0
20260506082908 13 88 3.2 4.8 0.00 0.00 0.00 79 1016.0
20260506082407 13 107 1.6 4.8 0.00 0.00 0.00 79 1016.0
20260506081907 13 93 3.2 4.8 0.00 0.00 0.00 79 1016.0
20260506081408 13 39 0.0 4.8 0.00 0.00 0.00 79 1016.0
20260506080908 13 113 1.6 4.8 0.00 0.00 0.00 79 1016.0
20260506080408 13 132 3.2 4.8 0.00 0.00 0.00 79 1016.0
20260506073407 13 134 0.0 4.8 0.00 0.00 0.00 77 1016.0
20260506072907 13 149 1.6 4.8 0.00 0.00 0.00 78 1016.0
20260506072407 13 161 1.6 4.8 0.00 0.00 0.00 78 1016.0
20260506071907 13 179 0.0 4.8 0.00 0.00 0.00 78 1016.0
20260506071407 13 184 3.2 4.8 0.00 0.00 0.00 78 1016.0
20260506070907 13 141 3.2 4.8 0.00 0.00 0.00 78 1016.0
20260506070407 13 194 1.6 3.2 0.00 0.00 0.00 78 1015.0
20260506062408 13 86 0.0 3.2 0.00 0.00 0.33 81 1015.0
20260506061907 13 128 3.2 4.8 0.00 0.00 0.33 81 1015.0
20260506061407 13 145 3.2 4.8 0.00 0.00 0.33 81 1015.0
20260506060907 13 134 1.6 4.8 0.00 0.00 0.33 81 1015.0
20260506060408 13 142 3.2 4.8 0.00 0.00 0.33 81 1015.0
20260506051407 13 103 6.4 8.0 0.00 0.00 0.33 81 1015.0
20260506050907 13 114 4.8 6.4 0.00 0.00 0.33 81 1015.0
20260506050407 13 71 3.2 8.0 0.00 0.00 0.33 81 1015.0
20260506044907 13 108 1.6 8.0 0.00 0.00 0.33 83 1015.0
20260506044408 13 130 6.4 9.7 0.00 0.00 0.33 84 1015.0
20260506043907 13 105 3.2 6.4 0.00 0.00 0.33 85 1015.0
20260506043407 13 37 1.6 6.4 0.00 0.00 0.33 85 1014.0
20260506042907 13 45 1.6 8.0 0.00 0.00 0.33 86 1014.0
20260506042408 13 68 4.8 6.4 0.00 0.00 0.33 86 1015.0
20260506041907 13 173 3.2 6.4 0.00 0.00 0.33 86 1014.0
20260506041407 13 135 3.2 6.4 0.00 0.00 0.33 86 1014.0
20260506040907 13 81 4.8 6.4 0.00 0.00 0.33 86 1015.0
20260506040407 13 322 0.0 4.8 0.00 0.00 0.33 86 1014.0
20260506035907 13 55 3.2 4.8 0.00 0.00 0.33 86 1014.0
20260506035407 13 123 3.2 3.2 0.00 0.00 0.33 85 1014.0
20260506034907 13 86 3.2 4.8 0.00 0.00 0.33 85 1014.0
20260506034407 13 118 0.0 3.2 0.00 0.00 0.33 84 1014.0
20260506033907 13 98 0.0 6.4 0.00 0.00 0.33 85 1014.0
20260506033411 13 64 0.0 4.8 0.00 0.00 0.33 85 1014.0
20260506032908 13 89 0.0 3.2 0.00 0.00 0.33 84 1014.0
20260506032408 13 72 1.6 4.8 0.00 0.00 0.33 83 1014.0
20260506031908 13 84 3.2 4.8 0.00 0.00 0.33 83 1014.0
20260506031407 13 106 1.6 4.8 0.00 0.00 0.33 83 1013.0
20260506030907 14 71 4.8 6.4 0.00 0.00 0.33 82 1013.0
20260506030407 14 113 3.2 4.8 0.00 0.00 0.33 83 1013.0
20260506025907 14 132 1.6 3.2 0.00 0.00 0.33 82 1013.0
20260506025407 14 100 1.6 4.8 0.00 0.00 0.33 82 1013.0
20260506024907 14 114 3.2 6.4 0.00 0.00 0.33 82 1013.0
20260506024407 14 142 4.8 4.8 0.00 0.00 0.33 82 1013.0
20260506023908 15 115 3.2 4.8 0.00 0.00 0.33 82 1013.0
20260506023407 15 121 1.6 6.4 0.00 0.00 0.33 82 1013.0
20260506022907 15 123 3.2 8.0 0.00 0.00 0.33 82 1013.0
20260506022408 15 119 3.2 8.0 0.00 0.00 0.33 82 1013.0
20260506021907 15 113 3.2 6.4 0.00 0.00 0.33 81 1013.0
20260506021408 15 101 4.8 8.0 0.00 0.00 0.33 81 1013.0
20260506020907 15 47 0.0 8.0 0.00 0.00 0.33 81 1013.0
20260506020407 15 105 1.6 8.0 0.00 0.00 0.33 81 1013.0
20260506015907 15 93 1.6 6.4 0.00 0.00 0.33 80 1013.0
20260506015407 15 95 4.8 8.0 0.00 0.00 0.33 80 1013.0
20260506014907 15 113 3.2 8.0 0.00 0.00 0.33 81 1013.0
20260506014407 15 55 1.6 6.4 0.00 0.00 0.33 80 1013.0
20260506013907 15 92 6.4 6.4 0.00 0.00 0.33 79 1012.0
20260506013407 15 121 4.8 8.0 0.00 0.00 0.33 80 1013.0
20260506012907 15 83 3.2 8.0 0.00 0.00 0.33 79 1013.0
20260506012407 15 93 4.8 8.0 0.00 0.00 0.33 81 1013.0
20260506011907 15 106 11.3 12.9 0.00 0.00 0.33 80 1013.0
20260506011408 15 101 3.2 8.0 0.00 0.00 0.33 80 1013.0
20260506010907 15 117 4.8 8.0 0.00 0.00 0.33 80 1013.0
20260506010407 15 115 4.8 9.7 0.00 0.00 0.33 79 1013.0
20260506005908 15 107 6.4 8.0 0.00 0.00 0.33 79 1013.0
20260506005407 15 103 6.4 8.0 0.00 0.00 0.33 80 1013.0
20260506004907 15 100 9.7 11.3 0.00 0.00 0.33 80 1013.0
20260506004407 15 172 0.0 9.7 0.00 0.00 0.33 79 1013.0
20260506003907 16 99 3.2 6.4 0.00 0.00 0.33 80 1013.0
20260506003408 16 78 4.8 8.0 0.00 0.00 0.33 79 1013.0
20260506002908 16 84 3.2 8.0 0.00 0.00 0.33 79 1013.0
20260506002408 16 119 4.8 6.4 0.00 0.00 0.33 78 1013.0
20260506001907 16 85 6.4 8.0 0.00 0.00 0.33 79 1012.0
20260506001407 16 118 4.8 8.0 0.00 0.00 0.33 77 1012.0
20260506000907 16 97 3.2 9.7 0.00 0.00 0.33 78 1013.0
20260506000408 16 98 8.0 9.7 0.00 0.00 0.33 78 1012.0
20260505235907 16 74 3.2 8.0 0.00 0.00 0.33 79 1013.0
20260505235407 16 86 8.0 9.7 0.00 0.00 0.33 79 1012.0
20260505234907 16 79 3.2 11.3 0.00 0.00 0.33 79 1013.0
20260505234407 15 110 4.8 8.0 0.00 0.00 0.33 80 1012.0
20260505233907 15 97 4.8 9.7 0.00 0.00 0.33 80 1012.0
20260505233407 15 116 4.8 9.7 0.00 0.00 0.33 80 1013.0
20260505232908 15 77 4.8 11.3 0.00 0.00 0.33 80 1013.0
20260505232407 15 130 1.6 9.7 0.00 0.00 0.33 80 1012.0
20260505231908 16 99 4.8 9.7 0.00 0.00 0.33 81 1013.0
20260505231407 16 73 4.8 8.0 0.00 0.00 0.33 81 1013.0
20260505230907 16 117 4.8 8.0 0.00 0.00 0.33 80 1013.0
20260505230407 16 106 8.0 8.0 0.00 0.00 0.33 80 1013.0
20260505225910 16 80 3.2 8.0 0.00 0.00 0.33 79 1013.0
20260505225407 16 149 0.0 9.7 0.00 0.00 0.33 80 1012.0
20260505224907 16 116 8.0 11.3 0.00 0.00 0.33 79 1012.0
20260505224407 16 81 4.8 9.7 0.00 0.00 0.33 78 1013.0
20260505223907 16 94 3.2 11.3 0.00 0.00 0.33 79 1013.0
20260505223407 16 84 4.8 11.3 0.00 0.00 0.33 79 1013.0
20260505222907 16 102 6.4 11.3 0.00 0.00 0.33 78 1012.0
20260505222407 17 102 4.8 9.7 0.00 0.00 0.33 75 1013.0
20260505221907 17 66 4.8 9.7 0.00 0.00 0.33 75 1013.0
20260505221407 17 94 6.4 11.3 0.00 0.00 0.33 75 1013.0
20260505220907 17 95 6.4 8.0 0.00 0.00 0.33 75 1013.0
20260505220407 17 139 3.2 9.7 0.00 0.00 0.33 74 1013.0
20260505215907 17 110 6.4 11.3 0.00 0.00 0.33 74 1013.0
20260505215407 17 87 6.4 8.0 0.00 0.00 0.33 75 1013.0
20260505214908 17 125 6.4 9.7 0.00 0.00 0.33 74 1013.0
20260505214407 17 103 4.8 9.7 0.00 0.00 0.33 75 1013.0
20260505213907 17 137 3.2 9.7 0.00 0.00 0.33 75 1013.0
20260505213407 17 99 4.8 8.0 0.00 0.00 0.33 75 1013.0
20260505212907 17 103 3.2 8.0 0.00 0.00 0.33 76 1013.0
20260505212407 17 105 4.8 9.7 0.00 0.00 0.33 74 1013.0
20260505211907 16 75 4.8 6.4 0.00 0.00 0.33 76 1013.0
20260505211407 16 96 6.4 9.7 0.00 0.00 0.33 76 1013.0
20260505210908 16 102 4.8 8.0 0.00 0.00 0.33 75 1013.0
20260505210408 16 81 3.2 8.0 0.00 0.00 0.33 77 1013.0
20260505205907 16 71 0.0 8.0 0.00 0.00 0.33 77 1013.0
20260505205407 16 98 4.8 6.4 0.00 0.00 0.33 78 1013.0
20260505204907 16 104 3.2 8.0 0.00 0.00 0.33 77 1013.0
20260505204408 16 73 3.2 4.8 0.00 0.00 0.33 78 1013.0
20260505203908 16 84 4.8 8.0 0.00 0.00 0.33 78 1013.0
20260505203407 16 95 4.8 8.0 0.00 0.00 0.33 77 1013.0
20260505202907 16 98 4.8 8.0 0.00 0.00 0.33 78 1013.0
20260505202407 16 113 0.0 6.4 0.00 0.00 0.33 77 1013.0
20260505201908 16 78 3.2 8.0 0.00 0.00 0.33 76 1013.0
20260505201408 16 45 1.6 8.0 0.00 0.00 0.33 76 1013.0
20260505200907 16 69 0.0 6.4 0.00 0.00 0.33 76 1013.0
20260505200407 16 95 3.2 8.0 0.00 0.00 0.33 75 1013.0
20260505195907 16 99 4.8 8.0 0.00 0.00 0.33 74 1013.0
20260505195410 17 99 3.2 8.0 0.00 0.00 0.33 73 1013.0
20260505194907 17 104 0.0 9.7 0.00 0.00 0.33 75 1013.0
20260505194407 17 128 0.0 4.8 0.00 0.00 0.33 73 1013.0
20260505193908 16 43 4.8 11.3 0.00 0.00 0.33 75 1013.0
20260505193409 16 83 3.2 8.0 0.00 0.00 0.33 73 1013.0
20260505192907 16 78 8.0 8.0 0.00 0.00 0.33 71 1013.0
20260505192408 16 114 3.2 8.0 0.00 0.00 0.33 72 1013.0
20260505191908 16 104 3.2 4.8 0.00 0.00 0.33 77 1013.0
20260505191407 16 102 4.8 8.0 0.00 0.00 0.33 79 1013.0
20260505190908 15 120 1.6 6.4 0.00 0.00 0.33 78 1013.0
20260505190408 15 94 3.2 6.4 0.00 0.00 0.33 78 1013.0
20260505185907 15 89 3.2 4.8 0.00 0.00 0.33 80 1013.0
20260505185407 15 94 3.2 6.4 0.00 0.00 0.33 80 1013.0
20260505184910 15 54 1.6 6.4 0.00 0.00 0.33 79 1013.0
20260505184408 15 85 4.8 6.4 0.00 0.00 0.33 79 1013.0
20260505183907 15 106 4.8 6.4 0.00 0.00 0.33 78 1013.0
20260505183408 15 142 1.6 6.4 0.00 0.00 0.33 76 1013.0
20260505182907 15 129 1.6 8.0 0.00 0.00 0.33 75 1013.0
20260505182407 15 129 1.6 4.8 0.00 0.00 0.33 76 1013.0
20260505181907 15 203 6.4 9.7 0.00 0.00 0.33 74 1013.0
20260505181407 15 146 3.2 6.4 0.00 0.00 0.33 76 1013.0
20260505180908 15 187 6.4 6.4 0.00 0.00 0.33 77 1013.0
20260505180407 15 142 1.6 4.8 0.00 0.00 0.33 77 1013.0
20260505175908 15 169 6.4 9.7 0.00 0.00 0.33 77 1013.0
20260505175407 15 130 0.0 4.8 0.00 0.00 0.33 78 1013.0
20260505174907 15 160 4.8 6.4 0.00 0.00 0.33 78 1013.0
20260505174407 14 177 4.8 8.0 0.00 0.00 0.33 78 1013.0
20260505173907 14 151 3.2 4.8 0.00 0.00 0.33 79 1012.0
20260505173409 14 96 3.2 6.4 0.00 0.00 0.33 80 1012.0
20260505172907 14 164 4.8 8.0 0.00 0.00 0.33 80 1013.0
20260505172407 14 175 3.2 6.4 0.00 0.00 0.33 80 1013.0
20260505171907 14 165 3.2 6.4 0.00 0.00 0.33 81 1012.0
20260505171408 14 147 1.6 3.2 0.00 0.00 0.33 82 1013.0
20260505170908 14 175 1.6 4.8 0.00 0.00 0.33 82 1013.0
20260505170409 13 181 3.2 4.8 0.00 0.00 0.33 83 1012.0
20260505165909 13 193 4.8 4.8 0.00 0.00 0.33 83 1013.0
20260505165407 13 168 3.2 3.2 0.00 0.00 0.33 85 1013.0
20260505164907 13 116 1.6 6.4 0.00 0.00 0.33 84 1012.0
20260505164407 13 147 3.2 3.2 0.00 0.00 0.33 85 1013.0
20260505163907 13 95 1.6 8.0 0.00 0.00 0.33 85 1013.0
20260505163407 13 151 1.6 4.8 0.00 0.00 0.33 86 1013.0
20260505162907 13 177 3.2 4.8 0.00 0.00 0.33 87 1013.0
20260505162407 13 179 4.8 4.8 0.00 0.00 0.33 88 1013.0
20260505161907 13 130 0.0 3.2 0.00 0.00 0.33 88 1012.0
20260505161407 13 181 3.2 4.8 0.00 0.00 0.33 89 1012.0
20260505160911 13 151 1.6 4.8 0.00 0.00 0.33 89 1012.0
20260505160408 13 180 3.2 4.8 0.00 0.00 0.33 89 1012.0